| time (UTC) | temp C | wind direction | speed KPH | gust KPH | rain 1hr cm | rain 24hr cm | rain mn cm | humidity % | barometer mb |
| 20260504192515 | 27 | 0.0 | 12.9 | 0.00 | 0.00 | 0.00 | 57 | 1011.7 | |
| 20260504191516 | 27 | 0.0 | 4.8 | 0.00 | 0.00 | 0.00 | 58 | 1012.0 | |
| 20260504190516 | 27 | 0.0 | 11.3 | 0.00 | 0.00 | 0.00 | 59 | 1012.1 | |
| 20260504185515 | 27 | 0.0 | 3.2 | 0.00 | 0.00 | 0.00 | 60 | 1012.1 | |
| 20260504184516 | 27 | 0.0 | 9.7 | 0.00 | 0.00 | 0.00 | 59 | 1012.1 | |
| 20260504183516 | 26 | 225 | 1.6 | 9.7 | 0.00 | 0.00 | 0.00 | 61 | 1012.3 |
| 20260504182535 | 26 | 0.0 | 11.3 | 0.00 | 0.00 | 0.00 | 62 | 1012.6 | |
| 20260504181515 | 26 | 0.0 | 3.2 | 0.00 | 0.00 | 0.00 | 62 | 1012.8 | |
| 20260504180516 | 26 | 0.0 | 4.8 | 0.00 | 0.00 | 0.00 | 64 | 1012.7 | |
| 20260504175516 | 25 | 225 | 1.6 | 19.3 | 0.00 | 0.00 | 0.00 | 64 | 1012.9 |
| 20260504174516 | 24 | 0.0 | 8.0 | 0.00 | 0.00 | 0.00 | 67 | 1013.1 | |
| 20260504173537 | 24 | 0.0 | 4.8 | 0.00 | 0.00 | 0.00 | 67 | 1013.5 | |
| 20260504172516 | 24 | 0.0 | 9.7 | 0.00 | 0.00 | 0.00 | 67 | 1013.6 | |
| 20260504171515 | 24 | 248 | 1.6 | 12.9 | 0.00 | 0.00 | 0.00 | 66 | 1013.9 |
| 20260504170515 | 24 | 0.0 | 9.7 | 0.00 | 0.00 | 0.00 | 66 | 1013.8 | |
| 20260504150515 | 22 | 0.0 | 9.7 | 0.00 | 0.00 | 0.00 | 69 | 1014.5 | |
| 20260504140517 | 20 | 225 | 1.6 | 17.7 | 0.00 | 0.00 | 0.00 | 75 | 1014.6 |
| 20260504130517 | 16 | 0.0 | 0.0 | 0.00 | 0.00 | 0.00 | 83 | 1014.5 | |
| 20260504110557 | 15 | 0.0 | 0.0 | 0.00 | 0.00 | 0.00 | 85 | 1014.4 | |
| 20260504100517 | 16 | 0.0 | 0.0 | 0.00 | 0.00 | 0.00 | 84 | 1014.5 | |
| 20260504081517 | 16 | 0.0 | 0.0 | 0.00 | 0.00 | 0.00 | 79 | 1015.0 | |
| 20260504080517 | 16 | 0.0 | 0.0 | 0.00 | 0.00 | 0.00 | 79 | 1015.1 | |
| 20260504050557 | 18 | 0.0 | 0.0 | 0.00 | 0.00 | 0.00 | 71 | 1017.2 | |
| 20260504045517 | 18 | 0.0 | 0.0 | 0.00 | 0.00 | 0.00 | 70 | 1017.2 | |
| 20260504044517 | 18 | 0.0 | 0.0 | 0.00 | 0.00 | 0.00 | 69 | 1017.3 | |
| 20260504043516 | 18 | 0.0 | 0.0 | 0.00 | 0.00 | 0.00 | 68 | 1017.3 | |
| 20260504042517 | 18 | 0.0 | 0.0 | 0.00 | 0.00 | 0.00 | 67 | 1017.4 | |
| 20260504041516 | 18 | 0.0 | 0.0 | 0.00 | 0.00 | 0.00 | 66 | 1017.6 | |
| 20260504040516 | 18 | 0.0 | 0.0 | 0.00 | 0.00 | 0.00 | 64 | 1017.5 | |
| 20260504035516 | 19 | 0.0 | 0.0 | 0.00 | 0.00 | 0.00 | 63 | 1017.6 | |
| 20260504034517 | 19 | 0.0 | 0.0 | 0.00 | 0.00 | 0.00 | 61 | 1017.4 | |
| 20260504033517 | 18 | 0.0 | 1.6 | 0.00 | 0.00 | 0.00 | 62 | 1017.3 | |
| 20260504032518 | 18 | 0.0 | 0.0 | 0.00 | 0.00 | 0.00 | 63 | 1017.2 | |
| 20260504031516 | 18 | 0.0 | 0.0 | 0.00 | 0.00 | 0.00 | 64 | 1017.3 | |
| 20260504030516 | 18 | 0.0 | 0.0 | 0.00 | 0.00 | 0.00 | 64 | 1017.3 | |
| 20260504025516 | 18 | 0.0 | 0.0 | 0.00 | 0.00 | 0.00 | 63 | 1017.2 | |
| 20260504024536 | 18 | 0.0 | 0.0 | 0.00 | 0.00 | 0.00 | 64 | 1017.1 | |
| 20260504023516 | 17 | 0.0 | 0.0 | 0.00 | 0.00 | 0.00 | 66 | 1016.9 | |
| 20260504022516 | 17 | 0.0 | 0.0 | 0.00 | 0.00 | 0.00 | 68 | 1016.9 | |
| 20260504021516 | 17 | 0.0 | 0.0 | 0.00 | 0.00 | 0.00 | 65 | 1016.8 | |
| 20260504020516 | 18 | 0.0 | 0.0 | 0.00 | 0.00 | 0.00 | 61 | 1016.7 | |
| 20260504015537 | 19 | 0.0 | 0.0 | 0.00 | 0.00 | 0.00 | 58 | 1016.4 | |
| 20260504014517 | 20 | 0.0 | 0.0 | 0.00 | 0.00 | 0.00 | 55 | 1016.2 | |
| 20260504013516 | 20 | 0.0 | 0.0 | 0.00 | 0.00 | 0.00 | 53 | 1016.2 | |
| 20260504012516 | 21 | 0.0 | 0.0 | 0.00 | 0.00 | 0.00 | 51 | 1016.2 | |
| 20260504011516 | 21 | 0.0 | 0.0 | 0.00 | 0.00 | 0.00 | 50 | 1016.1 | |
| 20260504010517 | 22 | 0.0 | 0.0 | 0.00 | 0.00 | 0.00 | 48 | 1016.2 | |
| 20260504005536 | 22 | 0.0 | 0.0 | 0.00 | 0.00 | 0.00 | 46 | 1016.1 | |
| 20260504004518 | 23 | 0.0 | 0.0 | 0.00 | 0.00 | 0.00 | 45 | 1016.1 | |
| 20260504003516 | 23 | 0.0 | 0.0 | 0.00 | 0.00 | 0.00 | 44 | 1016.1 | |
| 20260504002516 | 24 | 0.0 | 1.6 | 0.00 | 0.00 | 0.00 | 44 | 1016.3 | |
| 20260504001516 | 23 | 0.0 | 1.6 | 0.00 | 0.00 | 0.00 | 44 | 1016.3 | |
| 20260504000516 | 24 | 0.0 | 0.0 | 0.00 | 0.00 | 0.00 | 43 | 1016.5 | |
| 20260503235517 | 25 | 0.0 | 1.6 | 0.00 | 0.00 | 0.00 | 42 | 1016.7 | |
| 20260503234516 | 25 | 0.0 | 0.0 | 0.00 | 0.00 | 0.00 | 42 | 1016.6 | |
| 20260503233516 | 25 | 0.0 | 0.0 | 0.00 | 0.00 | 0.00 | 41 | 1016.9 | |
| 20260503232516 | 25 | 0.0 | 1.6 | 0.00 | 0.00 | 0.00 | 40 | 1016.8 | |
| 20260503231516 | 25 | 0.0 | 0.0 | 0.00 | 0.00 | 0.00 | 41 | 1016.7 | |
| 20260503230516 | 26 | 0.0 | 0.0 | 0.00 | 0.00 | 0.00 | 38 | 1016.7 | |
| 20260503225516 | 26 | 0.0 | 1.6 | 0.00 | 0.00 | 0.00 | 38 | 1016.9 | |
| 20260503224516 | 27 | 0.0 | 0.0 | 0.00 | 0.00 | 0.00 | 36 | 1017.0 | |
| 20260503223516 | 27 | 0.0 | 1.6 | 0.00 | 0.00 | 0.00 | 37 | 1017.2 | |
| 20260503222516 | 27 | 0.0 | 1.6 | 0.00 | 0.00 | 0.00 | 36 | 1017.1 | |
| 20260503221517 | 27 | 0.0 | 6.4 | 0.00 | 0.00 | 0.00 | 35 | 1017.5 | |
| 20260503220516 | 26 | 0.0 | 4.8 | 0.00 | 0.00 | 0.00 | 36 | 1017.5 | |
| 20260503215516 | 26 | 0.0 | 1.6 | 0.00 | 0.00 | 0.00 | 39 | 1017.5 | |
| 20260503214516 | 26 | 0.0 | 1.6 | 0.00 | 0.00 | 0.00 | 38 | 1017.8 | |
| 20260503213516 | 26 | 0.0 | 1.6 | 0.00 | 0.00 | 0.00 | 38 | 1018.1 | |
| 20260503212516 | 26 | 0.0 | 1.6 | 0.00 | 0.00 | 0.00 | 36 | 1018.1 | |
| 20260503211516 | 27 | 0.0 | 0.0 | 0.00 | 0.00 | 0.00 | 35 | 1018.4 | |
| 20260503210516 | 27 | 0.0 | 3.2 | 0.00 | 0.00 | 0.00 | 35 | 1018.6 | |
| 20260503205516 | 27 | 0.0 | 1.6 | 0.00 | 0.00 | 0.00 | 37 | 1018.7 | |
| 20260503204516 | 27 | 0.0 | 4.8 | 0.00 | 0.00 | 0.00 | 37 | 1018.8 | |
| 20260503203516 | 27 | 0.0 | 3.2 | 0.00 | 0.00 | 0.00 | 39 | 1018.9 | |
| 20260503202516 | 27 | 0.0 | 8.0 | 0.00 | 0.00 | 0.00 | 38 | 1019.4 | |
| 20260503201537 | 27 | 0.0 | 16.1 | 0.00 | 0.00 | 0.00 | 35 | 1019.4 | |
| 20260503200516 | 27 | 0.0 | 0.0 | 0.00 | 0.00 | 0.00 | 39 | 1019.6 | |
| 20260503195515 | 27 | 0.0 | 0.0 | 0.00 | 0.00 | 0.00 | 39 | 1019.9 | |
| 20260503194516 | 27 | 0.0 | 3.2 | 0.00 | 0.00 | 0.00 | 35 | 1019.8 | |
| 20260503193536 | 27 | 0.0 | 3.2 | 0.00 | 0.00 | 0.00 | 37 | 1020.0 |